Accueil
METAR-TAF:

METAR-TAF

Aéroports :

Prato Nevoso, Italie

Monte Malanotte

latitude: 44-15N, longitude: 007-48E, altitude: 1741 m

Observation

Le bulletin a été fait il y a 25 minutes, à 08:55 UTC
Vent 2 kt de direction variable
Température 22°C
Humidité 83%
Pression 1016 hPa
Visibilité: 7000 m
Quelques nuages à une hauteur de 1800 ft

METAR: LIMY 190855Z VRB02KT 7000 FEW018 22/19 Q1016 RMK BKN BKN080 VAL FOSCHIA VIS MIN 6000N

Heure: 11:20 (09:20 UTC)


TAF: absent

Observations et prévisions météorologiques de plus de 4000 aéroports (messages METAR et TAF).

Les stations disponibles sont représentées par des disques jaunes et rouges sur la carte.

Passer la souris dessus pour voir le nom de la station.

Cliquer dessus pour voir les observations et prévisions météorologiques.

Pour changer de carte: cliquez sur les boutons verts avec une croix noire pour zoomer, sur le bouton vert avec un tiret pour effectuer un zoom arrière, ou sur les flèches vertes pour les cartes adjacentes.


METAR-TAF: